Time,TemperatureF,DewpointF,PressureIn,WindDirection,WindDirectionDegrees,WindSpeedMPH,WindSpeedGustMPH,Humidity,HourlyPrecipIn,Conditions,Clouds,dailyrainin,SolarRadiationWatts/m^2,SoftwareType,DateUTC
2013-08-08 00:12:00,48.0,45.0,-100.00,SW,221,7.0,10.0,91,0.00,,,0.10,0.000000,,2013-08-08 06:12:00,
2013-08-08 00:21:00,48.0,45.0,-100.00,SW,221,7.0,10.0,91,0.00,,,0.10,0.000000,,2013-08-08 06:21:00,
2013-08-08 00:32:00,48.0,45.0,-100.00,SW,221,7.0,10.0,91,0.00,,,0.10,0.000000,,2013-08-08 06:32:00,
2013-08-08 00:43:00,48.0,45.0,-100.00,SW,221,7.0,10.0,91,0.00,,,0.10,0.000000,,2013-08-08 06:43:00,
2013-08-08 01:12:00,49.0,45.0,-100.00,SW,230,4.0,7.0,87,0.00,,,0.10,0.000000,,2013-08-08 07:12:00,
2013-08-08 01:22:00,49.0,45.0,-100.00,SW,230,4.0,7.0,87,0.00,,,0.10,0.000000,,2013-08-08 07:22:00,
2013-08-08 01:32:00,49.0,45.0,-100.00,SW,230,4.0,7.0,87,0.00,,,0.10,0.000000,,2013-08-08 07:32:00,
2013-08-08 01:43:00,49.0,45.0,-100.00,SW,230,4.0,7.0,87,0.00,,,0.10,0.000000,,2013-08-08 07:43:00,
2013-08-08 02:11:00,46.0,43.0,-100.00,SW,218,1.0,6.0,90,0.00,,,0.10,0.000000,,2013-08-08 08:11:00,
2013-08-08 02:22:00,46.0,43.0,-100.00,SW,218,1.0,6.0,90,0.00,,,0.10,0.000000,,2013-08-08 08:22:00,
2013-08-08 02:32:00,46.0,43.0,-100.00,SW,218,1.0,6.0,90,0.00,,,0.10,0.000000,,2013-08-08 08:32:00,
2013-08-08 02:43:00,46.0,43.0,-100.00,SW,218,1.0,6.0,90,0.00,,,0.10,0.000000,,2013-08-08 08:43:00,
2013-08-08 03:12:00,45.0,44.0,-100.00,SW,232,5.0,7.0,97,0.00,,,0.10,0.000000,,2013-08-08 09:12:00,
2013-08-08 03:22:00,45.0,44.0,-100.00,SW,232,5.0,7.0,97,0.00,,,0.10,0.000000,,2013-08-08 09:22:00,
2013-08-08 03:32:00,45.0,44.0,-100.00,SW,232,5.0,7.0,97,0.00,,,0.10,0.000000,,2013-08-08 09:32:00,
2013-08-08 03:43:00,45.0,44.0,-100.00,SW,232,5.0,7.0,97,0.00,,,0.10,0.000000,,2013-08-08 09:43:00,
2013-08-08 04:12:00,45.0,43.0,-100.00,SW,214,6.0,8.0,93,0.00,,,0.10,0.000000,,2013-08-08 10:12:00,
2013-08-08 04:22:00,45.0,43.0,-100.00,SW,214,6.0,8.0,93,0.00,,,0.10,0.000000,,2013-08-08 10:22:00,
2013-08-08 04:32:00,45.0,43.0,-100.00,SW,214,6.0,8.0,93,0.00,,,0.10,0.000000,,2013-08-08 10:32:00,
2013-08-08 04:43:00,45.0,43.0,-100.00,SW,214,6.0,8.0,93,0.00,,,0.10,0.000000,,2013-08-08 10:43:00,
2013-08-08 05:11:00,47.0,45.0,-100.00,SW,216,4.0,8.0,92,0.00,,,0.10,0.000000,,2013-08-08 11:11:00,
2013-08-08 05:22:00,47.0,45.0,-100.00,SW,216,4.0,8.0,92,0.00,,,0.10,0.000000,,2013-08-08 11:22:00,
2013-08-08 05:32:00,47.0,45.0,-100.00,SW,216,4.0,8.0,92,0.00,,,0.10,0.000000,,2013-08-08 11:32:00,
2013-08-08 05:43:00,47.0,45.0,-100.00,SW,216,4.0,8.0,92,0.00,,,0.10,0.000000,,2013-08-08 11:43:00,
2013-08-08 06:11:00,47.0,42.0,-100.00,NNW,329,0.0,6.0,83,0.00,,,0.10,0.000000,,2013-08-08 12:11:00,
2013-08-08 06:21:00,47.0,42.0,-100.00,NNW,329,0.0,6.0,83,0.00,,,0.10,0.000000,,2013-08-08 12:21:00,
2013-08-08 06:32:00,47.0,42.0,-100.00,NNW,329,0.0,6.0,83,0.00,,,0.10,0.000000,,2013-08-08 12:32:00,
2013-08-08 06:43:00,47.0,42.0,-100.00,NNW,329,0.0,6.0,83,0.00,,,0.10,0.000000,,2013-08-08 12:43:00,
2013-08-08 07:11:00,46.0,45.0,-100.00,SW,234,5.0,7.0,96,0.00,,,0.10,2.000000,,2013-08-08 13:11:00,
2013-08-08 07:22:00,46.0,45.0,-100.00,SW,234,5.0,7.0,96,0.00,,,0.10,2.000000,,2013-08-08 13:22:00,
2013-08-08 07:32:00,46.0,45.0,-100.00,SW,234,5.0,7.0,96,0.00,,,0.10,2.000000,,2013-08-08 13:32:00,
2013-08-08 07:43:00,46.0,45.0,-100.00,SW,234,5.0,7.0,96,0.00,,,0.10,2.000000,,2013-08-08 13:43:00,
2013-08-08 08:11:00,48.0,43.0,-100.00,ENE,68,0.0,5.0,82,0.00,,,0.05,32.000000,,2013-08-08 14:11:00,
2013-08-08 08:22:00,48.0,43.0,-100.00,ENE,68,0.0,5.0,82,0.00,,,0.05,32.000000,,2013-08-08 14:22:00,
2013-08-08 08:32:00,48.0,43.0,-100.00,ENE,68,0.0,5.0,82,0.00,,,0.05,32.000000,,2013-08-08 14:32:00,
2013-08-08 08:43:00,48.0,43.0,-100.00,ENE,68,0.0,5.0,82,0.00,,,0.05,32.000000,,2013-08-08 14:43:00,
2013-08-08 09:11:00,49.0,45.0,-100.00,SSW,204,0.0,4.0,85,0.00,,,0.04,155.000000,,2013-08-08 15:11:00,
2013-08-08 09:22:00,49.0,45.0,-100.00,SSW,204,0.0,4.0,85,0.00,,,0.04,155.000000,,2013-08-08 15:22:00,
2013-08-08 09:32:00,49.0,45.0,-100.00,SSW,204,0.0,4.0,85,0.00,,,0.04,155.000000,,2013-08-08 15:32:00,
2013-08-08 09:43:00,49.0,45.0,-100.00,SSW,204,0.0,4.0,85,0.00,,,0.04,155.000000,,2013-08-08 15:43:00,
2013-08-08 10:11:00,55.0,48.0,-100.00,SW,233,4.0,6.0,77,0.00,,,0.03,367.000000,,2013-08-08 16:11:00,
2013-08-08 10:22:00,55.0,48.0,-100.00,SW,233,4.0,6.0,77,0.00,,,0.03,367.000000,,2013-08-08 16:22:00,
2013-08-08 10:32:00,55.0,48.0,-100.00,SW,233,4.0,6.0,77,0.00,,,0.03,367.000000,,2013-08-08 16:32:00,
2013-08-08 10:42:00,55.0,48.0,-100.00,SW,233,4.0,6.0,77,0.00,,,0.03,367.000000,,2013-08-08 16:42:00,
2013-08-08 11:11:00,61.0,49.0,-100.00,SW,224,3.0,8.0,64,0.00,,,0.03,622.000000,,2013-08-08 17:11:00,
2013-08-08 11:21:00,61.0,49.0,-100.00,SW,224,3.0,8.0,64,0.00,,,0.03,622.000000,,2013-08-08 17:21:00,
2013-08-08 11:32:00,61.0,49.0,-100.00,SW,224,3.0,8.0,64,0.00,,,0.03,622.000000,,2013-08-08 17:32:00,
2013-08-08 11:43:00,61.0,49.0,-100.00,SW,224,3.0,8.0,64,0.00,,,0.03,622.000000,,2013-08-08 17:43:00,
2013-08-08 12:11:00,64.0,43.0,-100.00,North,1,1.0,7.0,47,0.00,,,0.03,718.000000,,2013-08-08 18:11:00,
2013-08-08 12:22:00,64.0,43.0,-100.00,North,1,1.0,7.0,47,0.00,,,0.03,718.000000,,2013-08-08 18:22:00,
2013-08-08 12:32:00,64.0,43.0,-100.00,North,1,1.0,7.0,47,0.00,,,0.03,718.000000,,2013-08-08 18:32:00,
2013-08-08 12:43:00,64.0,43.0,-100.00,North,1,1.0,7.0,47,0.00,,,0.03,718.000000,,2013-08-08 18:43:00,
2013-08-08 13:11:00,70.0,43.0,-100.00,SW,226,3.0,12.0,37,0.00,,,0.03,1160.000000,,2013-08-08 19:11:00,
2013-08-08 13:22:00,70.0,43.0,-100.00,SW,226,3.0,12.0,37,0.00,,,0.03,1160.000000,,2013-08-08 19:22:00,
2013-08-08 13:32:00,70.0,43.0,-100.00,SW,226,3.0,12.0,37,0.00,,,0.03,1160.000000,,2013-08-08 19:32:00,
2013-08-08 13:43:00,70.0,43.0,-100.00,SW,226,3.0,12.0,37,0.00,,,0.03,1160.000000,,2013-08-08 19:43:00,
2013-08-08 14:11:00,66.0,36.0,-100.00,West,265,4.0,11.0,33,0.00,,,0.00,894.000000,,2013-08-08 20:11:00,
2013-08-08 14:22:00,66.0,36.0,-100.00,West,265,4.0,11.0,33,0.00,,,0.00,894.000000,,2013-08-08 20:22:00,
2013-08-08 14:32:00,66.0,36.0,-100.00,West,265,4.0,11.0,33,0.00,,,0.00,894.000000,,2013-08-08 20:32:00,
2013-08-08 14:42:00,66.0,36.0,-100.00,West,265,4.0,11.0,33,0.00,,,0.00,894.000000,,2013-08-08 20:42:00,
2013-08-08 15:13:00,57.0,41.0,-100.00,NW,308,9.0,17.0,56,0.00,,,0.00,348.000000,,2013-08-08 21:13:00,
2013-08-08 15:23:00,57.0,41.0,-100.00,NW,308,9.0,17.0,56,0.00,,,0.00,348.000000,,2013-08-08 21:23:00,
2013-08-08 15:33:00,57.0,41.0,-100.00,NW,308,9.0,17.0,56,0.00,,,0.00,348.000000,,2013-08-08 21:33:00,
2013-08-08 15:43:00,57.0,41.0,-100.00,NW,308,9.0,17.0,56,0.00,,,0.00,348.000000,,2013-08-08 21:43:00,
2013-08-08 16:16:00,58.0,41.0,-100.00,SW,220,19.0,26.0,53,0.00,,,0.00,375.000000,,2013-08-08 22:16:00,
2013-08-08 16:34:00,58.0,41.0,-100.00,SW,220,19.0,26.0,53,0.00,,,0.00,375.000000,,2013-08-08 22:34:00,
2013-08-08 16:47:00,58.0,41.0,-100.00,SW,220,19.0,26.0,53,0.00,,,0.00,375.000000,,2013-08-08 22:47:00,
2013-08-08 17:14:00,55.0,40.0,-100.00,WSW,237,17.0,24.0,56,0.00,,,0.00,419.000000,,2013-08-08 23:14:00,
2013-08-08 17:23:00,55.0,40.0,-100.00,WSW,237,17.0,24.0,56,0.00,,,0.00,419.000000,,2013-08-08 23:23:00,
2013-08-08 17:45:00,55.0,40.0,-100.00,WSW,237,17.0,24.0,56,0.00,,,0.00,419.000000,,2013-08-08 23:45:00,
2013-08-08 18:14:00,57.0,42.0,-100.00,South,176,7.0,18.0,57,0.00,,,0.00,363.000000,,2013-08-09 00:14:00,
2013-08-08 18:24:00,57.0,42.0,-100.00,South,176,7.0,18.0,57,0.00,,,0.00,363.000000,,2013-08-09 00:24:00,
2013-08-08 18:34:00,57.0,42.0,-100.00,South,176,7.0,18.0,57,0.00,,,0.00,363.000000,,2013-08-09 00:34:00,
2013-08-08 18:45:00,57.0,42.0,-100.00,South,176,7.0,18.0,57,0.00,,,0.00,363.000000,,2013-08-09 00:45:00,
2013-08-08 19:14:00,54.0,41.0,-100.00,ESE,113,12.0,17.0,62,0.00,,,0.00,111.000000,,2013-08-09 01:14:00,
2013-08-08 19:24:00,54.0,41.0,-100.00,ESE,113,12.0,17.0,62,0.00,,,0.00,111.000000,,2013-08-09 01:24:00,
2013-08-08 19:33:00,54.0,41.0,-100.00,ESE,113,12.0,17.0,62,0.00,,,0.00,111.000000,,2013-08-09 01:33:00,
2013-08-08 19:45:00,54.0,41.0,-100.00,ESE,113,12.0,17.0,62,0.00,,,0.00,111.000000,,2013-08-09 01:45:00,
2013-08-08 20:13:00,49.0,40.0,-100.00,ENE,63,15.0,20.0,72,0.00,,,0.00,17.000000,,2013-08-09 02:13:00,
2013-08-08 20:44:00,49.0,40.0,-100.00,ENE,63,15.0,20.0,72,0.00,,,0.00,17.000000,,2013-08-09 02:44:00,
2013-08-08 21:14:00,50.0,40.0,-100.00,South,189,3.0,21.0,69,0.00,,,0.00,4.000000,,2013-08-09 03:14:00,
2013-08-08 21:23:00,50.0,40.0,-100.00,South,189,3.0,21.0,69,0.00,,,0.00,4.000000,,2013-08-09 03:23:00,
2013-08-08 21:34:00,50.0,40.0,-100.00,South,189,3.0,21.0,69,0.00,,,0.00,4.000000,,2013-08-09 03:34:00,
2013-08-08 21:44:00,50.0,40.0,-100.00,South,189,3.0,21.0,69,0.00,,,0.00,4.000000,,2013-08-09 03:44:00,
2013-08-08 22:12:00,47.0,45.0,-100.00,NE,50,2.0,7.0,94,0.00,,,0.00,0.000000,,2013-08-09 04:12:00,
2013-08-08 22:22:00,47.0,45.0,-100.00,NE,50,2.0,7.0,94,0.00,,,0.00,0.000000,,2013-08-09 04:22:00,
2013-08-08 22:33:00,47.0,45.0,-100.00,NE,50,2.0,7.0,94,0.00,,,0.00,0.000000,,2013-08-09 04:33:00,
2013-08-08 22:43:00,47.0,45.0,-100.00,NE,50,2.0,7.0,94,0.00,,,0.00,0.000000,,2013-08-09 04:43:00,
2013-08-08 23:11:00,46.0,41.0,-100.00,NW,317,1.0,5.0,82,0.00,,,0.00,0.000000,,2013-08-09 05:11:00,
2013-08-08 23:22:00,46.0,41.0,-100.00,NW,317,1.0,5.0,82,0.00,,,0.00,0.000000,,2013-08-09 05:22:00,
2013-08-08 23:32:00,46.0,41.0,-100.00,NW,317,1.0,5.0,82,0.00,,,0.00,0.000000,,2013-08-09 05:32:00,
2013-08-08 23:43:00,46.0,41.0,-100.00,NW,317,1.0,5.0,82,0.00,,,0.00,0.000000,,2013-08-09 05:43:00,